Philadelphia, PA

1:26 PM EST on December 14, 2019 (GMT -0500)
Philadelphia International

Weather History for KPHL - November, 2019

Change the Weather History Date:

Wednesday, November 20, 2019

  Actual Average Record
Temperature  
Mean Temperature 47 °F 46 °F  
Max Temperature 52 °F 54 °F 76 °F (1985)
Min Temperature 42 °F 38 °F 21 °F (1984)
Degree Days  
Heating Degree Days 18 19  
Month to date heating degree days 432 314  
Since 1 July heating degree days 584 607  
Cooling Degree Days 0 0  
Month to date cooling degree days 0 0  
Year to date cooling degree days 1610 1300  
Moisture  
Dew Point 30 °F    
Average Humidity 54    
Maximum Humidity 67    
Minimum Humidity 41    
Precipitation  
Precipitation 0.00 in 0.10 in 2.59 in (1876)
Month to date precipitation 0.24 1.90  
Year to date precipitation 41.30 36.88  
Snow  
Snow 0.00 in 0.00 in 3.20 in (1961)
Month to date snowfall T 0.1  
Since 1 July snowfall T 0.1  
Since 1 September snowfall T 0.1  
Snow Depth 0.00 in    
Sea Level Pressure  
Sea Level Pressure 30.02 in    
Wind  
Wind Speed 10 mph ()    
Max Wind Speed 24 mph    
Max Gust Speed 32 mph    
Visibility 10.0 miles    
Events      
T = Trace of Precipitation, MM = Missing Value Source: Averaged Metar Reports

Daily Weather History Graph

Daily Weather History Graph

Search for Another Location

Airport or City:

Astronomy

Nov. 20, 2019 Rise Set
Actual Time 6:51 AM EST 4:41 PM EST
Civil Twilight 6:21 AM EST 5:10 PM EST
Nautical Twilight 5:48 AM EST 5:43 PM EST
Astronomical Twilight 5:16 AM EST 6:15 PM EST
Moon No Moon Rise 1:35 PM EST (11/20)
Length of Visible Light 10h 48m
Length of Day
9h 50m
Last Quarter, 41% of the Moon is Illuminated
Nov 20
Last Quarter
Nov 26
New
Dec 4
First Quarter
Dec 12
Full
Dec 18
Last Quarter

Hourly Weather History & Observations

Time (EST) Temp. Windchill Dew Point Humidity Pressure Visibility Wind Dir Wind Speed Gust Speed Precip Events Conditions
12:54 AM 44.1 °F 40.8 °F 32.0 °F 63% 29.88 in 10.0 mi NNW 5.8 mph - N/A   Overcast
1:54 AM 43.0 °F 40.3 °F 32.0 °F 65% 29.90 in 10.0 mi NNW 4.6 mph - N/A   Overcast
2:54 AM 43.0 °F 41.3 °F 32.0 °F 65% 29.90 in 10.0 mi NNW 3.5 mph - N/A   Overcast
3:54 AM 43.0 °F 38.8 °F 30.9 °F 62% 29.91 in 10.0 mi NW 6.9 mph - N/A   Overcast
4:54 AM 42.1 °F 37.1 °F 30.9 °F 65% 29.92 in 10.0 mi NNW 8.1 mph - N/A   Overcast
5:54 AM 42.1 °F 37.1 °F 30.0 °F 62% 29.94 in 10.0 mi NNW 8.1 mph - N/A   Overcast
7:54 AM 43.0 °F 37.2 °F 30.0 °F 60% 29.98 in 10.0 mi NNW 10.4 mph - N/A   Overcast
8:54 AM 44.1 °F 36.5 °F 30.9 °F 60% 29.99 in 10.0 mi NNW 17.3 mph 23.0 mph N/A   Overcast
9:54 AM 44.1 °F 37.4 °F 30.0 °F 58% 30.00 in 10.0 mi NW 13.8 mph - N/A   Overcast
10:54 AM 45.0 °F 37.6 °F 28.0 °F 52% 30.00 in 10.0 mi NNW 17.3 mph 27.6 mph N/A   Overcast
11:54 AM 46.9 °F - 28.0 °F 48% 30.00 in 10.0 mi NW 16.1 mph - N/A   Overcast
12:54 PM 48.9 °F - 28.0 °F 44% 30.00 in 10.0 mi NW 19.6 mph 32.2 mph N/A   Mostly Cloudy
1:54 PM 51.1 °F - 28.0 °F 41% 29.99 in 10.0 mi North 20.7 mph 26.5 mph N/A   Scattered Clouds
2:54 PM 52.0 °F - 28.9 °F 41% 30.00 in 10.0 mi NW 16.1 mph - N/A   Mostly Cloudy
3:54 PM 50.0 °F - 28.9 °F 44% 30.03 in 10.0 mi NNW 19.6 mph 26.5 mph N/A   Overcast
4:54 PM 48.9 °F - 28.9 °F 46% 30.05 in 10.0 mi NNW 18.4 mph 28.8 mph N/A   Mostly Cloudy
5:54 PM 46.9 °F - 30.0 °F 52% 30.09 in 10.0 mi NW 10.4 mph - N/A   Mostly Cloudy
6:54 PM 46.9 °F - 28.9 °F 50% 30.10 in 10.0 mi NW 17.3 mph - N/A   Mostly Cloudy
7:54 PM 46.9 °F - 30.0 °F 52% 30.12 in 10.0 mi NW 12.7 mph - N/A   Scattered Clouds
8:54 PM 46.0 °F 41.4 °F 30.0 °F 54% 30.12 in 10.0 mi NNW 9.2 mph - N/A   Partly Cloudy
9:54 PM 46.0 °F 41.9 °F 30.9 °F 56% 30.14 in 10.0 mi WNW 8.1 mph - N/A   Mostly Cloudy
10:54 PM 46.0 °F 40.2 °F 30.0 °F 54% 30.14 in 10.0 mi NNW 12.7 mph 23.0 mph N/A   Overcast
11:54 PM 46.9 °F - 30.0 °F 52% 30.15 in 10.0 mi NW 9.2 mph 18.4 mph N/A   Mostly Cloudy